Bellaire, MI

8:57 AM EDT on September 24, 2017 (GMT -0400)
Antrim County

Weather History for KACB - November, 2012

Change the Weather History Date:

Thursday, November 8, 2012

  Actual Average (KCVX) Record (KCVX)
Temperature  
Mean Temperature 36 °F -  
Max Temperature 44 °F 47 °F 57 °F (2001)
Min Temperature 27 °F 37 °F 24 °F (2003)
Degree Days  
Heating Degree Days 30    
Moisture  
Dew Point 33 °F    
Average Humidity 74    
Maximum Humidity 92    
Minimum Humidity 67    
Precipitation  
Precipitation 0.00 in - - ()
Sea Level Pressure  
Sea Level Pressure 30.12 in    
Wind  
Wind Speed 3 mph (South)    
Max Wind Speed 8 mph    
Max Gust Speed -    
Visibility 10 miles    
Events      
Averages and records for this station are not official NWS values.
T = Trace of Precipitation, MM = Missing Value Source: NWS Daily Summary

Daily Weather History Graph

Daily Weather History Graph

Search for Another Location

Airport or City:

Trip Planner

Search our weather history database for the weather conditions in past years. The results will help you decide how hot, cold, wet, or windy it might be!

Date:

Astronomy

Nov. 08, 2012 Rise Set
Actual Time 7:29 AM EST 5:19 PM EST
Civil Twilight 6:58 AM EST 5:50 PM EST
Nautical Twilight 6:23 AM EST 6:25 PM EST
Astronomical Twilight 5:48 AM EST 6:59 PM EST
Moon 1:08 AM EST (11/8) 2:13 PM EST (11/8)
Length of Visible Light 10h 51m
Length of Day
9h 49m
Waning Crescent, 33% of the Moon is Illuminated
Nov 8
Waning Crescent
Nov 13
New
Nov 20
First Quarter
Nov 28
Full
Dec 6
Last Quarter

Hourly Weather History & Observations

Time (EST) Temp. Windchill Dew Point Humidity Pressure Visibility Wind Dir Wind Speed Gust Speed Precip Events Conditions
12:15 AM 27.5 °F - 25.5 °F 92% 30.15 in 10.0 mi Calm Calm - N/A   Overcast
12:35 AM 28.4 °F - 26.4 °F 92% 30.15 in 10.0 mi Calm Calm - N/A   Overcast
12:54 AM 29.7 °F - 27.7 °F 92% 30.15 in 10.0 mi Calm Calm - N/A   Overcast
1:15 AM 30.9 °F - 28.4 °F 90% 30.15 in 10.0 mi Calm Calm - N/A   Overcast
1:35 AM 31.1 °F - 28.8 °F 91% 30.15 in 10.0 mi Calm Calm - N/A   Overcast
2:15 AM 32.0 °F - 29.3 °F 90% 30.15 in 10.0 mi Calm Calm - N/A   Overcast
2:55 AM 33.3 °F - 30.6 °F 90% 30.15 in 10.0 mi Calm Calm - N/A   Overcast
3:15 AM 36.7 °F - 29.5 °F 75% 30.16 in 10.0 mi Calm Calm - N/A   Overcast
3:34 AM 36.7 °F 34.1 °F 29.8 °F 76% 30.16 in 10.0 mi South 3.5 mph - N/A   Overcast
3:55 AM 36.5 °F 33.9 °F 29.8 °F 77% 30.16 in 10.0 mi South 3.5 mph - N/A   Overcast
4:14 AM 36.5 °F 33.9 °F 29.7 °F 76% 30.15 in 10.0 mi South 3.5 mph - N/A   Overcast
4:35 AM 36.9 °F - 29.8 °F 76% 30.16 in 10.0 mi Calm Calm - N/A   Overcast
4:55 AM 37.4 °F 33.8 °F 29.8 °F 74% 30.16 in 10.0 mi South 4.6 mph - N/A   Overcast
5:15 AM 36.7 °F 32.9 °F 30.2 °F 77% 30.15 in 10.0 mi SSE 4.6 mph - N/A   Overcast
5:35 AM 36.5 °F - 30.0 °F 77% 30.16 in 10.0 mi Calm Calm - N/A   Overcast
6:15 AM 37.0 °F 33.3 °F 29.7 °F 75% 30.16 in 10.0 mi South 4.6 mph - N/A   Overcast
6:35 AM 36.7 °F 34.1 °F 29.8 °F 76% 30.16 in 10.0 mi SSE 3.5 mph - N/A   Overcast
6:55 AM 36.7 °F 32.9 °F 30.0 °F 77% 30.16 in 10.0 mi SSE 4.6 mph - N/A   Overcast
7:15 AM 36.9 °F - 29.8 °F 76% 30.16 in 10.0 mi Calm Calm - N/A   Overcast
7:55 AM 37.4 °F 34.9 °F 29.8 °F 74% 30.16 in 10.0 mi South 3.5 mph - N/A   Overcast
8:15 AM 37.6 °F 34.0 °F 30.0 °F 74% 30.17 in 10.0 mi South 4.6 mph - N/A   Overcast
8:35 AM 37.8 °F 35.3 °F 30.2 °F 74% 30.17 in 10.0 mi South 3.5 mph - N/A   Overcast
8:56 AM 38.3 °F 35.9 °F 30.4 °F 73% 30.17 in 10.0 mi South 3.5 mph - N/A   Overcast
9:15 AM 38.7 °F 34.3 °F 30.2 °F 72% 30.17 in 10.0 mi South 5.8 mph - N/A   Overcast
9:35 AM 39.4 °F 36.1 °F 30.6 °F 71% 30.17 in 10.0 mi South 4.6 mph - N/A   Overcast
9:55 AM 40.1 °F 36.9 °F 30.7 °F 69% 30.17 in 10.0 mi South 4.6 mph - N/A   Overcast
10:15 AM 40.8 °F 36.9 °F 30.9 °F 68% 30.16 in 10.0 mi South 5.8 mph - N/A   Overcast
10:35 AM 41.2 °F 37.3 °F 31.1 °F 67% 30.16 in 10.0 mi South 5.8 mph - N/A   Overcast
10:55 AM 41.5 °F 37.1 °F 31.5 °F 67% 30.16 in 10.0 mi South 6.9 mph - N/A   Overcast
11:35 AM 42.3 °F 39.4 °F 32.0 °F 67% 30.15 in 10.0 mi South 4.6 mph - N/A   Overcast
11:55 AM 42.8 °F 39.3 °F 32.9 °F 68% 30.15 in 10.0 mi SSW 5.8 mph - N/A   Overcast
12:15 PM 43.0 °F 41.3 °F 33.6 °F 70% 30.14 in 10.0 mi SSW 3.5 mph - N/A   Overcast
12:36 PM 43.0 °F 40.3 °F 34.0 °F 71% 30.13 in 10.0 mi South 4.6 mph - N/A   Overcast
12:55 PM 43.7 °F 40.3 °F 34.5 °F 70% 30.13 in 10.0 mi SSW 5.8 mph - N/A   Overcast
1:15 PM 44.1 °F 41.5 °F 34.9 °F 70% 30.12 in 10.0 mi SSW 4.6 mph - N/A   Overcast
1:36 PM 44.1 °F 40.8 °F 34.7 °F 70% 30.11 in 10.0 mi SW 5.8 mph - N/A   Overcast
1:55 PM 44.6 °F 41.4 °F 34.9 °F 69% 30.11 in 10.0 mi South 5.8 mph - N/A   Overcast
2:15 PM 44.6 °F 40.7 °F 34.9 °F 69% 30.10 in 10.0 mi South 6.9 mph - N/A   Overcast
2:35 PM 44.8 °F 41.6 °F 34.7 °F 68% 30.09 in 10.0 mi SW 5.8 mph - N/A   Overcast
2:55 PM 44.6 °F 42.2 °F 35.1 °F 69% 30.09 in 10.0 mi South 4.6 mph - N/A   Overcast
3:15 PM 44.6 °F 42.2 °F 34.9 °F 69% 30.09 in 10.0 mi South 4.6 mph - N/A   Overcast
3:35 PM 44.6 °F - 35.2 °F 70% 30.09 in 10.0 mi Calm Calm - N/A   Overcast
3:55 PM 44.6 °F 42.2 °F 35.4 °F 70% 30.08 in 10.0 mi SSW 4.6 mph - N/A   Overcast
4:14 PM 44.8 °F 40.4 °F 35.6 °F 70% 30.08 in 10.0 mi SSW 8.1 mph - N/A   Overcast
4:35 PM 44.6 °F 40.7 °F 36.0 °F 72% 30.07 in 10.0 mi South 6.9 mph - N/A   Overcast
4:55 PM 44.2 °F 41.8 °F 36.0 °F 73% 30.08 in 7.0 mi South 4.6 mph - N/A   Overcast
5:15 PM 44.1 °F 40.8 °F 35.6 °F 72% 30.07 in 7.0 mi South 5.8 mph - N/A   Overcast
5:35 PM 44.1 °F 40.1 °F 35.2 °F 71% 30.06 in 10.0 mi South 6.9 mph - N/A   Overcast
5:55 PM 44.1 °F 41.5 °F 35.2 °F 71% 30.07 in 10.0 mi South 4.6 mph - N/A   Overcast
6:15 PM 43.9 °F 42.3 °F 35.4 °F 72% 30.06 in 10.0 mi South 3.5 mph - N/A   Overcast
6:36 PM 43.7 °F - 35.4 °F 73% 30.07 in 10.0 mi Calm Calm - N/A   Overcast
6:55 PM 43.7 °F 41.1 °F 35.4 °F 73% 30.06 in 10.0 mi South 4.6 mph - N/A   Overcast
7:15 PM 43.9 °F 42.3 °F 34.7 °F 70% 30.07 in 10.0 mi South 3.5 mph - N/A   Overcast
7:36 PM 43.3 °F 39.2 °F 34.7 °F 72% 30.06 in 10.0 mi South 6.9 mph - N/A   Overcast
7:55 PM 43.3 °F 39.2 °F 34.7 °F 72% 30.06 in 10.0 mi South 6.9 mph - N/A   Overcast
8:15 PM 43.2 °F 39.7 °F 34.7 °F 72% 30.06 in 10.0 mi SSW 5.8 mph - N/A   Overcast
8:36 PM 43.0 °F 40.3 °F 34.9 °F 73% 30.06 in 10.0 mi South 4.6 mph - N/A   Overcast
8:55 PM 43.0 °F 40.3 °F 34.9 °F 73% 30.06 in 10.0 mi SSW 4.6 mph - N/A   Overcast
9:15 PM 42.8 °F 40.1 °F 35.1 °F 74% 30.06 in 10.0 mi South 4.6 mph - N/A   Overcast
9:36 PM 42.3 °F 39.4 °F 34.7 °F 75% 30.05 in 7.0 mi SSW 4.6 mph - N/A   Overcast
9:55 PM 42.6 °F - 35.1 °F 75% 30.06 in 7.0 mi Calm Calm - N/A   Overcast
10:16 PM 42.6 °F 40.9 °F 35.1 °F 75% 30.07 in 7.0 mi SSW 3.5 mph - N/A   Overcast
10:35 PM 42.8 °F - 35.6 °F 76% 30.07 in 7.0 mi Calm Calm - N/A   Overcast
10:55 PM 43.3 °F 39.9 °F 35.8 °F 75% 30.07 in 7.0 mi SW 5.8 mph - N/A   Overcast
11:15 PM 43.3 °F 39.9 °F 35.8 °F 75% 30.07 in 10.0 mi SW 5.8 mph - N/A   Overcast
11:35 PM 43.2 °F 40.5 °F 35.8 °F 75% 30.07 in 10.0 mi SW 4.6 mph - N/A   Overcast
11:55 PM 43.0 °F 38.8 °F 36.0 °F 76% 30.07 in 10.0 mi SW 6.9 mph - N/A   Overcast